• In Romania
  • List of Countries
  • For 7 days
  • Water Temperature
  • Satellite Maps
  • Weather Map
  • Weather Widgets
  • user-avatar
    Login

    Hourly Weather Stepanakert

    Today, 18 November, Saturday

    Time Temperature Precipitation Wind Pressure Humidity
    00:00 +8°C° 0.1 mm 2 mps 697 mmHg 86%
    01:00 +8°C° 0.1 mm 2 mps 697 mmHg 86%
    02:00 +9°C° 0.1 mm 1 mps 697 mmHg 86%
    03:00 +9°C° 0.1 mm 1 mps 697 mmHg 86%
    04:00 +9°C° 0.1 mm 1 mps 697 mmHg 86%
    05:00 +9°C° 0.1 mm 1 mps 697 mmHg 85%
    06:00 +9°C° 0.1 mm 1 mps 697 mmHg 85%
    07:00 +9°C° 0 mm 1 mps 697 mmHg 82%
    08:00 +10°C° 0 mm 1 mps 697 mmHg 79%
    09:00 +10°C° 0 mm 2 mps 698 mmHg 76%
    10:00 +10°C° 0 mm 2 mps 697 mmHg 73%
    11:00 +12°C° 0 mm 2 mps 697 mmHg 71%
    12:00 +12°C° 0 mm 2 mps 697 mmHg 68%
    13:00 +12°C° 0 mm 2 mps 697 mmHg 68%
    14:00 +12°C° 0 mm 2 mps 696 mmHg 69%
    15:00 +12°C° 0 mm 2 mps 696 mmHg 69%
    16:00 +12°C° 0 mm 2 mps 696 mmHg 73%
    17:00 +11°C° 0 mm 1 mps 696 mmHg 77%
    18:00 +10°C° 0 mm 1 mps 696 mmHg 80%
    19:00 +10°C° 0 mm 1 mps 696 mmHg 78%
    20:00 +9°C° 0 mm 1 mps 696 mmHg 76%
    21:00 +9°C° 0 mm 1 mps 696 mmHg 74%
    22:00 +9°C° 0 mm 1 mps 696 mmHg 72%
    23:00 +9°C° 0 mm 1 mps 695 mmHg 70%

    Tomorrow, 19 November, Sunday

    Time Temperature Precipitation Wind Pressure Humidity
    00:00 +9°C° 0 mm 1 mps 695 mmHg 68%
    01:00 +9°C° 0 mm 1 mps 695 mmHg 67%
    02:00 +9°C° 0 mm 1 mps 695 mmHg 65%
    03:00 +8°C° 0 mm 1 mps 695 mmHg 63%
    04:00 +8°C° 0 mm 1 mps 694 mmHg 61%
    05:00 +8°C° 0 mm 1 mps 694 mmHg 60%
    06:00 +8°C° 0 mm 1 mps 694 mmHg 58%
    07:00 +10°C° 0 mm 1 mps 694 mmHg 54%
    08:00 +11°C° 0 mm 1 mps 695 mmHg 50%
    09:00 +13°C° 0 mm 1 mps 695 mmHg 46%
    10:00 +14°C° 0 mm 1 mps 695 mmHg 44%
    11:00 +15°C° 0 mm 1 mps 694 mmHg 41%
    12:00 +16°C° 0 mm 2 mps 694 mmHg 39%
    13:00 +16°C° 0 mm 2 mps 694 mmHg 40%
    14:00 +16°C° 0 mm 2 mps 693 mmHg 41%
    15:00 +16°C° 0 mm 2 mps 693 mmHg 42%
    16:00 +14°C° 0 mm 1 mps 693 mmHg 46%
    17:00 +13°C° 0 mm 1 mps 693 mmHg 50%
    18:00 +12°C° 0 mm 1 mps 692 mmHg 55%
    19:00 +12°C° 0 mm 1 mps 692 mmHg 53%
    20:00 +12°C° 0 mm 1 mps 693 mmHg 51%
    21:00 +12°C° 0 mm 1 mps 693 mmHg 50%
    22:00 +12°C° 0 mm 1 mps 692 mmHg 50%
    23:00 +12°C° 0 mm 1 mps 692 mmHg 50%

    Day after tomorrow, 20 November, Monday

    Time Temperature Precipitation Wind Pressure Humidity
    00:00 +11°C° 0 mm 1 mps 692 mmHg 50%
    01:00 +10°C° 0 mm 2 mps 692 mmHg 49%
    02:00 +10°C° 0 mm 2 mps 692 mmHg 49%
    03:00 +10°C° 0 mm 2 mps 692 mmHg 49%
    04:00 +9°C° 0 mm 2 mps 692 mmHg 49%
    05:00 +9°C° 0 mm 2 mps 692 mmHg 49%
    06:00 +9°C° 0 mm 2 mps 692 mmHg 50%
    07:00 +12°C° 0 mm 2 mps 692 mmHg 46%
    08:00 +13°C° 0 mm 2 mps 693 mmHg 43%
    09:00 +15°C° 0 mm 2 mps 693 mmHg 40%
    10:00 +16°C° 0 mm 2 mps 693 mmHg 37%
    11:00 +17°C° 0 mm 2 mps 692 mmHg 34%
    12:00 +18°C° 0 mm 2 mps 692 mmHg 31%
    13:00 +18°C° 0 mm 2 mps 692 mmHg 32%
    14:00 +18°C° 0 mm 2 mps 691 mmHg 33%
    15:00 +18°C° 0 mm 2 mps 691 mmHg 34%
    16:00 +16°C° 0 mm 2 mps 691 mmHg 38%
    17:00 +14°C° 0 mm 1 mps 690 mmHg 43%
    18:00 +13°C° 0 mm 1 mps 690 mmHg 47%
    19:00 +13°C° 0 mm 1 mps 690 mmHg 47%
    20:00 +12°C° 0 mm 1 mps 690 mmHg 48%
    21:00 +12°C° 0 mm 1 mps 690 mmHg 48%
    22:00 +12°C° 0 mm 1 mps 690 mmHg 48%
    23:00 +12°C° 0 mm 2 mps 689 mmHg 48%

    21 November, Tuesday

    Time Temperature Precipitation Wind Pressure Humidity
    00:00 +12°C° 0 mm 2 mps 689 mmHg 48%
    01:00 +10°C° 0 mm 2 mps 689 mmHg 49%
    02:00 +11°C° 0 mm 1 mps 689 mmHg 49%
    03:00 +11°C° 0 mm 1 mps 688 mmHg 50%
    04:00 +11°C° 0 mm 1 mps 688 mmHg 50%
    05:00 +11°C° 0 mm 1 mps 688 mmHg 50%
    06:00 +11°C° 0 mm 1 mps 688 mmHg 51%
    07:00 +12°C° 0 mm 1 mps 688 mmHg 48%
    08:00 +13°C° 0 mm 1 mps 688 mmHg 46%
    09:00 +14°C° 0 mm 1 mps 688 mmHg 44%
    10:00 +15°C° 0.1 mm 1 mps 688 mmHg 43%
    11:00 +15°C° 0.1 mm 1 mps 687 mmHg 42%
    12:00 +16°C° 0.1 mm 2 mps 687 mmHg 41%
    13:00 +16°C° 0.1 mm 2 mps 687 mmHg 42%
    14:00 +16°C° 0.1 mm 2 mps 686 mmHg 44%
    15:00 +16°C° 0.1 mm 1 mps 686 mmHg 45%
    16:00 +14°C° 0 mm 1 mps 686 mmHg 49%
    17:00 +13°C° 0 mm 1 mps 686 mmHg 52%
    18:00 +12°C° 0 mm 1 mps 685 mmHg 55%
    19:00 +12°C° 0 mm 1 mps 685 mmHg 56%
    20:00 +12°C° 0 mm 1 mps 686 mmHg 56%
    21:00 +12°C° 0 mm 1 mps 686 mmHg 56%
    22:00 +12°C° 0 mm 1 mps 686 mmHg 56%
    23:00 +11°C° 0 mm 1 mps 686 mmHg 56%

    22 November, Wednesday

    Time Temperature Precipitation Wind Pressure Humidity
    00:00 +11°C° 0 mm 1 mps 685 mmHg 56%
    01:00 +11°C° 0 mm 1 mps 685 mmHg 56%
    02:00 +11°C° 0 mm 1 mps 685 mmHg 56%
    03:00 +11°C° 0 mm 1 mps 685 mmHg 56%
    04:00 +10°C° 0 mm 1 mps 685 mmHg 57%
    05:00 +10°C° 0 mm 1 mps 685 mmHg 58%
    06:00 +9°C° 0 mm 0 mps 685 mmHg 58%
    07:00 +10°C° 0 mm 1 mps 686 mmHg 56%
    08:00 +11°C° 0 mm 1 mps 686 mmHg 54%
    09:00 +12°C° 0 mm 1 mps 686 mmHg 52%
    10:00 +13°C° 0 mm 2 mps 686 mmHg 51%
    11:00 +13°C° 0 mm 2 mps 686 mmHg 50%
    12:00 +12°C° 0 mm 3 mps 686 mmHg 49%
    13:00 +12°C° 0.1 mm 3 mps 686 mmHg 52%
    14:00 +11°C° 0.1 mm 3 mps 686 mmHg 55%
    15:00 +11°C° 0.1 mm 3 mps 686 mmHg 57%
    16:00 +10°C° 0.8 mm 3 mps 686 mmHg 63%
    17:00 +9°C° 0.8 mm 3 mps 687 mmHg 69%
    18:00 +8°C° 0.8 mm 2 mps 687 mmHg 75%
    19:00 +7°C° 0.7 mm 2 mps 687 mmHg 77%
    20:00 +7°C° 0.7 mm 2 mps 688 mmHg 79%
    21:00 +7°C° 0.7 mm 2 mps 688 mmHg 81%
    22:00 +6°C° 0.3 mm 2 mps 688 mmHg 80%
    23:00 +6°C° 0.3 mm 2 mps 688 mmHg 79%

    23 November, Thursday

    Time Temperature Precipitation Wind Pressure Humidity
    00:00 +7°C° 0.3 mm 1 mps 689 mmHg 78%
    01:00 +7°C° 0.1 mm 1 mps 689 mmHg 78%
    02:00 +6°C° 0.1 mm 2 mps 689 mmHg 78%
    03:00 +5°C° 0.1 mm 2 mps 689 mmHg 79%
    04:00 +6°C° 0.1 mm 1 mps 690 mmHg 78%
    05:00 +6°C° 0.1 mm 1 mps 690 mmHg 78%
    06:00 +6°C° 0.1 mm 1 mps 690 mmHg 78%
    07:00 +7°C° 0 mm 1 mps 691 mmHg 73%
    08:00 +6°C° 0 mm 2 mps 691 mmHg 68%
    09:00 +7°C° 0 mm 2 mps 692 mmHg 64%
    10:00 +8°C° 0 mm 2 mps 692 mmHg 59%
    11:00 +8°C° 0 mm 2 mps 692 mmHg 54%
    12:00 +9°C° 0 mm 2 mps 692 mmHg 49%
    13:00 +9°C° 0 mm 3 mps 692 mmHg 49%
    14:00 +9°C° 0 mm 3 mps 692 mmHg 48%
    15:00 +8°C° 0 mm 3 mps 692 mmHg 48%
    16:00 +7°C° 0 mm 3 mps 692 mmHg 52%
    17:00 +5°C° 0 mm 3 mps 693 mmHg 57%
    18:00 +5°C° 0 mm 2 mps 693 mmHg 62%
    19:00 +5°C° 0.1 mm 2 mps 694 mmHg 64%
    20:00 +4°C° 0.1 mm 2 mps 694 mmHg 66%
    21:00 +4°C° 0.1 mm 2 mps 695 mmHg 68%
    22:00 +4°C° 0.2 mm 2 mps 695 mmHg 70%
    23:00 +4°C° 0.2 mm 2 mps 695 mmHg 71%
    Show more